Regional Weather Roundup
Issued by NWS

Home | Current Version | Previous Version | Text Only | Print | Product List | Glossary On
Versions: 1 2 3 4 5 6 7 8 9 10 11 12 13 14 15 16 17 18 19 20 21 22 23 24 25 26 27 28 29 30 31 32 33 34 35 36 37 38 39 40 41 42 43 44 45 46 47 48 49 50
000
ASUS45 KBOI 300910
RWRID
WEATHER ROUNDUP FOR IDAHO
NATIONAL WEATHER SERVICE BOISE ID
300 AM MDT MON MAR 30 2015

NOTE: "FAIR" INDICATES FEW OR NO CLOUDS BELOW 12000 FEET
WITH NO SIGNIFICANT WEATHER AND/OR OBSTRUCTIONS TO VISIBILITY

IDZ012-014-301000-
SOUTHWEST IDAHO


CITY           SKY/WX    TMP DP  RH WIND       PRES   REMARKS
BOISE          CLEAR     46  30  53 SE6       30.16R
CALDWELL       CLEAR     39  25  56 NE3       30.17S
MOUNTAIN HOME  CLEAR     37  26  64 E2        30.16S
$$

IDZ016-017-301000-
SOUTHCENTRAL IDAHO


CITY           SKY/WX    TMP DP  RH WIND       PRES   REMARKS
BURLEY         CLEAR     37  23  56 CALM      30.19S
JEROME         CLEAR     42  20  41 CALM      30.20S
TWIN FALLS     CLEAR     43  20  39 S12       30.19F
$$

IDZ019>023-301000-
SOUTHEAST IDAHO


CITY           SKY/WX    TMP DP  RH WIND       PRES   REMARKS
IDAHO FALLS    PTCLDY    37  18  46 CALM      30.20R
POCATELLO      CLEAR     36  19  50 E3        30.21S
REXBURG        CLEAR     31  23  72 NE5       30.20S WCI  26
$$

IDZ006-010-011-018-031-032-301000-
CENTRAL IDAHO MOUNTAINS


CITY           SKY/WX    TMP DP  RH WIND       PRES   REMARKS
MCCALL         CLEAR     32  27  81 CALM      30.20S
HAILEY         CLEAR     39  28  65 NW8       30.23S WCI  34
STANLEY          N/A     28  22  78 CALM      30.28S
SALMON         CLEAR     36  27  69 CALM      30.20S
CHALLIS        CLEAR     37  24  59 CALM      30.22R
$$

IDZ002-004-006-007-026-301000-
NORTHERN IDAHO


CITY           SKY/WX    TMP DP  RH WIND       PRES   REMARKS
LEWISTON       CLEAR     48  39  71 SE3       30.15R
LOWELL           N/A     41  39  93 N3        30.22S
COEUR D`ALENE  CLEAR     39  36  87 E5        30.15S
MULLAN PASS    PTCLDY    37  27  67 SW7       30.15F WCI  32
$$


USA.gov is the U.S. government's official web portal to all federal, state and local government web resources and services.